Flag for Dominican Republic Weather past 2 weeks in Santo Domingo, Dominican Republic

Now
88 °F

Passing clouds.


Feels Like: 94 °F
Forecast: N/A
Wind: 6 mph from South

Location: Las Americas

Current Time: Oct 22, 2014 at 6:09:16 PM

Latest Report: Oct 22, 2014 at 5:00 PM


Visibility: N/A

Pressure: 29.86 "Hg

Humidity: 59%

Dew point: 72 °F

Location of Santo DomingoLocation

Historic Weather in Santo Domingo — Graph

°F

Santo Domingo temperature yesterday

Maximum temperature yesterday: 90 °F (at 2:00 PM)
Minimum temperature yesterday: 73 °F (at 12:00 AM)
Average temperature yesterday: 80 °F

Past Weeks' High & Low Weather Summary

 TemperatureHumidityPressure
High91 °F (Oct 8, 2:00 PM)100% (Oct 11, 5:00 AM)29.98 "Hg (Oct 11, 5:00 AM)
Low72 °F (Oct 18, 4:00 AM)49% (Oct 9, 1:00 PM)29.24 "Hg (Oct 9, 6:00 PM)
Average80 °F81%29.90 "Hg
* Reported Oct 7 5:00 PM — Oct 22 5:00 PM, Santo Domingo, Weather by CustomWeather, © 2014

Note: Actual official high and low records may vary slightly from our data, if they occured in-between our weather recording intervals... More about our weather records

Advertising

Santo Domingo weather history for previous 24 hours

 ConditionsComfort  
Time TempWeatherWind HumidityBarometerVisibility
5:00 PM
Oct 22
88 °FPassing clouds.6 mph59%29.86 "HgN/A
4:00 PM90 °FPassing clouds.8 mph59%29.86 "HgN/A
3:00 PM90 °FPassing clouds.6 mph63%29.86 "HgN/A
2:00 PM90 °FPassing clouds.9 mph63%29.89 "HgN/A
1:00 PM90 °FPassing clouds.9 mph63%29.92 "HgN/A
12:00 PM88 °FPassing clouds.9 mph66%29.95 "HgN/A
11:00 AM86 °FPassing clouds.12 mph75%29.95 "HgN/A
10:00 AM82 °FPassing clouds.7 mph84%29.98 "HgN/A
9:00 AM81 °FPassing clouds.6 mph84%29.95 "HgN/A
8:00 AM77 °FPassing clouds.6 mph89%29.95 "HgN/A
7:00 AM75 °FPassing clouds.5 mph94%29.95 "HgN/A
6:00 AM75 °FPassing clouds.6 mph89%29.92 "HgN/A
5:00 AM75 °FPassing clouds.5 mph89%29.92 "HgN/A
4:00 AM75 °FPassing clouds.No wind89%29.92 "HgN/A
3:00 AM75 °FPassing clouds.5 mph89%29.92 "HgN/A
2:00 AM75 °FPassing clouds.5 mph89%29.92 "HgN/A
1:00 AM77 °FPassing clouds.6 mph83%29.95 "HgN/A
12:00 AM77 °FPassing clouds.6 mph83%29.95 "HgN/A
11:00 PM
Oct 21
77 °FPassing clouds.5 mph83%29.95 "HgN/A
10:00 PM79 °FPassing clouds.5 mph79%29.95 "HgN/A
9:00 PM81 °FPassing clouds.5 mph79%29.92 "HgN/A
8:00 PM82 °FPassing clouds.3 mph74%29.83 "HgN/A
7:00 PM82 °FThunderstorms. Passing clouds.No wind70%29.86 "HgN/A
6:00 PM84 °FPassing clouds.5 mph66%29.86 "HgN/A
Weather by CustomWeather, © 2014

See weather overviewHow to use our weather pages